TimeCST,TemperatureF,Dew PointF,Humidity,Sea Level PressureIn,VisibilityMPH,Wind Direction,Wind SpeedMPH,Gust SpeedMPH,PrecipitationIn,Events,Conditions,WindDirDegrees,DateUTC
12:53 AM,12.0,9.0,88,30.40,5.0,Calm,Calm,-,N/A,,Clear,0,2013-03-07 06:53:00
1:30 AM,12.2,10.4,92,30.34,1.8,Calm,Calm,-,N/A,,Clear,0,2013-03-07 07:30:00
1:43 AM,12.2,8.6,85,30.35,3.0,Calm,Calm,-,N/A,,Clear,0,2013-03-07 07:43:00
1:53 AM,10.9,6.1,81,30.39,6.0,Calm,Calm,-,N/A,,Haze,0,2013-03-07 07:53:00
2:53 AM,10.0,7.0,87,30.39,6.0,Calm,Calm,-,N/A,,Clear,0,2013-03-07 08:53:00
3:28 AM,10.4,6.8,85,30.34,1.8,Calm,Calm,-,N/A,,Clear,0,2013-03-07 09:28:00
3:38 AM,10.4,6.8,85,30.34,3.0,Calm,Calm,-,N/A,,Clear,0,2013-03-07 09:38:00
3:53 AM,9.0,5.0,84,30.39,6.0,Calm,Calm,-,N/A,,Clear,0,2013-03-07 09:53:00
4:53 AM,9.0,3.9,80,30.40,6.0,Calm,Calm,-,N/A,,Haze,0,2013-03-07 10:53:00
5:53 AM,7.0,1.9,80,30.40,6.0,Calm,Calm,-,N/A,,Haze,0,2013-03-07 11:53:00
6:24 AM,6.8,1.4,79,30.35,6.0,Calm,Calm,-,N/A,,Haze,0,2013-03-07 12:24:00
6:37 AM,8.6,3.2,79,30.35,6.0,Calm,Calm,-,N/A,,Haze,0,2013-03-07 12:37:00
6:53 AM,8.1,3.9,83,30.42,0.5,Calm,Calm,-,N/A,Fog,Light Freezing Fog,0,2013-03-07 12:53:00
7:13 AM,8.6,3.2,79,30.35,0.2,Calm,Calm,-,N/A,,Haze,0,2013-03-07 13:13:00
7:18 AM,6.8,3.2,85,30.35,2.0,ENE,3.5,-,N/A,,Partly Cloudy,60,2013-03-07 13:18:00
7:53 AM,9.0,6.1,88,30.40,2.0,Calm,Calm,-,N/A,,Clear,0,2013-03-07 13:53:00
8:53 AM,14.0,12.9,95,30.42,2.0,Calm,Calm,-,N/A,,Clear,0,2013-03-07 14:53:00
9:00 AM,15.8,12.2,86,30.36,4.0,East,3.5,-,N/A,,Clear,100,2013-03-07 15:00:00
9:53 AM,19.0,15.1,85,30.40,6.0,ESE,4.6,-,N/A,,Clear,120,2013-03-07 15:53:00
10:53 AM,24.1,15.1,69,30.41,10.0,SE,5.8,-,N/A,,Clear,140,2013-03-07 16:53:00
11:53 AM,27.0,15.1,61,30.40,10.0,SE,11.5,-,N/A,,Clear,130,2013-03-07 17:53:00
12:53 PM,28.0,16.0,61,30.39,10.0,SSE,11.5,-,N/A,,Clear,150,2013-03-07 18:53:00
1:53 PM,28.9,16.0,58,30.36,10.0,ESE,9.2,-,N/A,,Clear,120,2013-03-07 19:53:00
2:53 PM,30.0,17.1,59,30.35,10.0,ESE,11.5,-,N/A,,Clear,120,2013-03-07 20:53:00
3:53 PM,30.0,18.0,61,30.35,10.0,ESE,10.4,-,N/A,,Clear,120,2013-03-07 21:53:00
4:53 PM,30.0,17.1,59,30.34,10.0,SE,13.8,-,N/A,,Clear,130,2013-03-07 22:53:00
5:53 PM,28.0,17.1,63,30.34,10.0,ESE,10.4,-,N/A,,Clear,110,2013-03-07 23:53:00
6:53 PM,27.0,16.0,63,30.33,10.0,ESE,9.2,-,N/A,,Clear,120,2013-03-08 00:53:00
7:53 PM,26.1,16.0,66,30.32,10.0,SE,11.5,-,N/A,,Clear,130,2013-03-08 01:53:00
8:53 PM,25.0,15.1,66,30.32,10.0,SE,9.2,-,N/A,,Clear,130,2013-03-08 02:53:00
9:53 PM,21.9,14.0,72,30.32,10.0,SE,9.2,-,N/A,,Clear,130,2013-03-08 03:53:00
10:53 PM,23.0,15.1,72,30.33,10.0,SE,11.5,-,N/A,,Clear,140,2013-03-08 04:53:00
11:53 PM,19.9,12.9,74,30.34,10.0,SSE,6.9,-,N/A,,Clear,150,2013-03-08 05:53:00